"Pseudo-MPEC" for ZTs0278

Created 2024 Sep 7 21:22:26 UT using Find_Orb

Click here for an explanation of pseudo-MPECs

 
 Astrometry: 
     ZTs0278  C2024 09 02.29928323 29 09.808-03 04 25.28   ~92M7 17.78gUNEOCPI41
     ZTs0278  C2024 09 02.29963023 29 12.310-03 03 20.48   ~92M7 17.78gUNEOCPI41
     ZTs0278* C2024 09 02.30116723 29 23.956-02 58 24.76   ~92Lb 17.95gUNEOCPI41
     ZTs0278  C2024 09 02.30151423 29 26.633-02 57 16.22   ~92Lb 17.95gUNEOCPI41
     ZTs0278  C2024 09 02.37352323 39 03.741+01 09 03.84   ~92Lb 17.52RUNEOCPI41
     ZTs0278  C2024 09 02.37387023 39 06.768+01 10 20.88   ~92Lb 17.52RUNEOCPI41

Station data:
(I41) Palomar Mountain--ZTF  (N33.357336 W116.859780)  US/California.
   Observers B. T. Bolin, Z. T. F. Collaboration. Measurers B. T. Bolin,
   Z.-Y. Lin, F. J. Masci. 1.2-m f/2.4 Schmidt.

Orbital elements:  ZTs0278
   Perihelion 2024 Sep 30.30725 +/- 4.19 TT =  7:22:26 (JD 2460583.80725)
Epoch 2024 Sep  2.0 TT = JDT 2460555.5   Earth MOID: 0.0030   Ju: 0.5239
M 355.30321236 +/- 12               (J2000 ecliptic)             AutoNEOCP
n   0.16592172 +/- 0.403            Peri.   38.26828 +/- 3.2
a   3.27994994 +/- 4.74             Node   340.01861 +/- 0.041
e   0.7184477 +/- 0.458             Incl.    9.47039 +/- 4.3
P   5.94020                H 28.14  G  0.15   U 12.1
q 0.92347720 +/- 0.0386    Q 5.63642268 +/- 9.51
From 6 observations 2024 Sept. 2 (1.8 hr); mean residual 0".74
Residuals in arcseconds: 
240902 I41  .86+  .87+    240902 I41  .34-  .77-    240902 I41  .52-  .66-    
240902 I41  .87-  .94-    240902 I41  .44+  .93+    240902 I41  .62+  .71+    

Ephemerides (geocentric):
Date (UTC) HH   RA             Dec           delta  r     elong  mag " sig PA
---- --------  ------------   ------------  ------ ------ -----  --- --------
2024 09 07 21  08 40 38.248   +47 59 40.00  .04081 .98317  52.4 26?? 2743  86
2024 09 07 22  08 40 52.902   +47 57 44.88  .04114 .98295  52.3 26?? 2741  86
2024 09 07 23  08 41 07.316   +47 55 51.37  .04146 .98274  52.3 26?? 2739  86
2024 09 08 00  08 41 21.498   +47 53 59.42  .04179 .98253  52.3 26?? 2737  86
2024 09 08 01  08 41 35.453   +47 52 09.01  .04212 .98232  52.3 26?? 2735  86
2024 09 08 02  08 41 49.186   +47 50 20.11  .04245 .98210  52.3 26?? 2733  86
2024 09 08 03  08 42 02.704   +47 48 32.67  .04277 .98189  52.3 26?? 2731  86
2024 09 08 04  08 42 16.011   +47 46 46.66  .04310 .98168  52.2 26?? 2729  86
2024 09 08 05  08 42 29.113   +47 45 02.06  .04343 .98147  52.2 26?? 2727  86
2024 09 08 06  08 42 42.015   +47 43 18.84  .04376 .98126  52.2 26?? 2725  86
2024 09 08 07  08 42 54.721   +47 41 36.96  .04408 .98105  52.2 26?? 2724  86
2024 09 08 08  08 43 07.236   +47 39 56.40  .04441 .98084  52.2 26?? 2722  86
2024 09 08 09  08 43 19.565   +47 38 17.13  .04474 .98063  52.2 26?? 2720  86
2024 09 08 10  08 43 31.713   +47 36 39.13  .04507 .98042  52.2 26?? 2718  86
2024 09 08 11  08 43 43.682   +47 35 02.36  .04539 .98021  52.2 26?? 2717  86
2024 09 08 12  08 43 55.479   +47 33 26.80  .04572 .98000  52.1 26?? 2715  86
2024 09 08 13  08 44 07.105   +47 31 52.42  .04605 .97979  52.1 26?? 2713  86
2024 09 08 14  08 44 18.567   +47 30 19.21  .04638 .97958  52.1 26?? 2712  86
2024 09 08 15  08 44 29.866   +47 28 47.14  .04671 .97938  52.1 26?? 2710  86
2024 09 08 16  08 44 41.008   +47 27 16.18  .04703 .97917  52.1 26?? 2709  86
2024 09 08 17  08 44 51.995   +47 25 46.31  .04736 .97896  52.1 26?? 2707  86
2024 09 08 18  08 45 02.831   +47 24 17.51  .04769 .97875  52.1 26?? 2705  86
2024 09 08 19  08 45 13.519   +47 22 49.77  .04802 .97855  52.1 26?? 2704  86
2024 09 08 20  08 45 24.063   +47 21 23.05  .04835 .97834  52.1 26?? 2702  86
2024 09 08 21  08 45 34.466   +47 19 57.34  .04867 .97813  52.1 26?? 2701  86
2024 09 08 22  08 45 44.730   +47 18 32.61  .04900 .97793  52.1 26?? 2700  86
2024 09 08 23  08 45 54.859   +47 17 08.86  .04933 .97772  52.1 26?? 2698  86
2024 09 09 00  08 46 04.856   +47 15 46.06  .04966 .97752  52.1 26?? 2697  86
2024 09 09 01  08 46 14.724   +47 14 24.18  .04999 .97731  52.1 26?? 2695  86
2024 09 09 02  08 46 24.464   +47 13 03.23  .05031 .97711  52.1 26?? 2694  86
2024 09 09 03  08 46 34.081   +47 11 43.16  .05064 .97691  52.1 26?? 2693  86
2024 09 09 04  08 46 43.577   +47 10 23.98  .05097 .97670  52.1 26?? 2691  86
2024 09 09 05  08 46 52.953   +47 09 05.66  .05130 .97650  52.1 26?? 2690  86
2024 09 09 06  08 47 02.213   +47 07 48.19  .05163 .97630  52.1 26?? 2689  86
2024 09 09 07  08 47 11.359   +47 06 31.55  .05195 .97609  52.1 27?? 2688  86
2024 09 09 08  08 47 20.394   +47 05 15.72  .05228 .97589  52.1 27?? 2686  86
2024 09 09 09  08 47 29.319   +47 04 00.70  .05261 .97569  52.1 27?? 2685  86
2024 09 09 10  08 47 38.137   +47 02 46.46  .05294 .97549  52.1 27?? 2684  86
2024 09 09 11  08 47 46.850   +47 01 32.99  .05327 .97529  52.1 27?? 2683  86
2024 09 09 12  08 47 55.460   +47 00 20.28  .05360 .97509  52.1 27?? 2682  86
2024 09 09 13  08 48 03.969   +46 59 08.31  .05392 .97489  52.1 27?? 2681  87
2024 09 09 14  08 48 12.379   +46 57 57.07  .05425 .97469  52.1 27?? 2679  87
2024 09 09 15  08 48 20.692   +46 56 46.54  .05458 .97449  52.1 27?? 2678  87
2024 09 09 16  08 48 28.911   +46 55 36.72  .05491 .97429  52.1 27?? 2677  87
2024 09 09 17  08 48 37.036   +46 54 27.59  .05524 .97409  52.1 27?? 2676  87
2024 09 09 18  08 48 45.070   +46 53 19.14  .05557 .97389  52.1 27?? 2675  87
2024 09 09 19  08 48 53.014   +46 52 11.36  .05589 .97369  52.1 27?? 2674  87
2024 09 09 20  08 49 00.871   +46 51 04.23  .05622 .97349  52.1 27?? 2673  87